Weather in Rechnoy

Russia / Omsk Oblast     54°40′31″N   73°48′09″E
temp.,
°C
wind,
m/s
gust,
m/s
humid.,
%
clouds,
%
prec.,
mm/h
press.,
hPa
HPBL,
m
18 april, sun
sun1800:00+4ssw356399 0.0 102088
03:00+3sw487329 0.0 1017142
06:00+2sw487558 0.0 1016137
09:00+6wsw51264100 0.0 1013468
12:00+10wsw81248100 0.0 10111437
15:00+11w81450100 0.1 10082315
18:00+3nw101572100 0.3 1011920
21:00−3nnw11156812 0.0 10171204
19 april, mon
mon1900:00−5n913609 0.0 10211095
03:00−6n7105722 0.0 10241121
06:00−7n79525 0.0 10271011
09:00−7n784326 0.0 10291199
12:00−4n673468 0.0 10291579
15:00−2n7732100 0.0 10292023
18:00−2n6733100 0.0 10302118
21:00−4n47445 0.0 1032536
20 april, tue
tue2000:00−5n36505 0.0 10321046
03:00−5n45536 0.0 10321118
06:00−6n35590 0.0 1033689
09:00−4nnw34445 0.0 10331136
12:00−1nw44355 0.0 10321397
15:00+1w57325 0.0 10291610
18:00+2w69345 0.0 10271680
21:000wsw5115192 0.0 1026312
21 april, wed
wed2100:00+1wsw61353100 0.0 1023605
03:00+1wnw71367100 0.1 1021775
06:00+1nnw6977100 0.2 1021957
09:00+1nnw7107096 0.1 10231340
12:00+1n7963100 0.1 10251279
15:00+3n895898 0.1 10261555
18:00+2nne71063100 0.1 10291412
21:000n6117251 0.0 1032605
22 april, thu
thu2200:00−1nne511735 0.0 1034533
03:00−2nne59775 0.0 1036461
06:00−2nne49795 0.0 1039373
09:00+1ne57565 0.0 1041790
12:00+4ne44425 0.0 10421490
15:00+5ne333814 0.0 10421742
18:00+5ne333813 0.0 10431680
21:00+2ene34555 0.0 104546